Stündliche Wetter Barlewiczki

Heute, 29 Oktober, Donnerstag

Zeit Temperatur Niederschläge Wind Luftdruck Luftfeuchtigkeit
00:00 +9°C° 0 mm 3 m/S 754 mmHg 88%
01:00 +7°C° 0 mm 4 m/S 754 mmHg 90%
02:00 +7°C° 0 mm 4 m/S 754 mmHg 91%
03:00 +7°C° 0 mm 4 m/S 753 mmHg 93%
04:00 +7°C° 0 mm 3 m/S 753 mmHg 94%
05:00 +6°C° 0 mm 4 m/S 753 mmHg 94%
06:00 +6°C° 0 mm 4 m/S 753 mmHg 94%
07:00 +6°C° 0 mm 4 m/S 753 mmHg 94%
08:00 +7°C° 0 mm 4 m/S 753 mmHg 88%
09:00 +10°C° 0 mm 4 m/S 753 mmHg 83%
10:00 +10°C° 0 mm 5 m/S 753 mmHg 77%
11:00 +10°C° 0 mm 5 m/S 752 mmHg 78%
12:00 +10°C° 0 mm 5 m/S 752 mmHg 79%
13:00 +10°C° 0 mm 5 m/S 752 mmHg 79%
14:00 +9°C° 0.2 mm 5 m/S 752 mmHg 81%
15:00 +10°C° 0.2 mm 4 m/S 752 mmHg 83%
16:00 +10°C° 0.2 mm 4 m/S 753 mmHg 85%
17:00 +8°C° 0.1 mm 4 m/S 753 mmHg 83%
18:00 +8°C° 0.1 mm 4 m/S 753 mmHg 82%
19:00 +7°C° 0.1 mm 4 m/S 753 mmHg 80%
20:00 +7°C° 0.2 mm 5 m/S 753 mmHg 82%
21:00 +7°C° 0.2 mm 5 m/S 753 mmHg 84%
22:00 +7°C° 0.2 mm 6 m/S 754 mmHg 86%
23:00 +7°C° 0.5 mm 6 m/S 754 mmHg 87%

Morgen, 30 Oktober, Freitag

Zeit Temperatur Niederschläge Wind Luftdruck Luftfeuchtigkeit
00:00 +8°C° 0.5 mm 6 m/S 754 mmHg 88%
01:00 +8°C° 0.5 mm 6 m/S 754 mmHg 89%
02:00 +8°C° 0.4 mm 6 m/S 754 mmHg 88%
03:00 +8°C° 0.4 mm 6 m/S 755 mmHg 86%
04:00 +8°C° 0.4 mm 6 m/S 755 mmHg 85%
05:00 +8°C° 0.2 mm 6 m/S 755 mmHg 86%
06:00 +7°C° 0.2 mm 5 m/S 756 mmHg 87%
07:00 +7°C° 0.2 mm 5 m/S 756 mmHg 88%
08:00 +8°C° 0 mm 5 m/S 756 mmHg 85%
09:00 +8°C° 0 mm 5 m/S 757 mmHg 82%
10:00 +9°C° 0 mm 5 m/S 757 mmHg 79%
11:00 +10°C° 0 mm 4 m/S 757 mmHg 77%
12:00 +10°C° 0 mm 4 m/S 757 mmHg 75%
13:00 +11°C° 0 mm 4 m/S 756 mmHg 73%
14:00 +10°C° 0 mm 3 m/S 756 mmHg 75%
15:00 +9°C° 0 mm 2 m/S 756 mmHg 77%
16:00 +9°C° 0 mm 2 m/S 756 mmHg 80%
17:00 +8°C° 0.1 mm 2 m/S 756 mmHg 83%
18:00 +9°C° 0.1 mm 1 m/S 757 mmHg 87%
19:00 +9°C° 0.1 mm 1 m/S 757 mmHg 90%
20:00 +8°C° 0 mm 1 m/S 757 mmHg 91%
21:00 +8°C° 0 mm 1 m/S 757 mmHg 92%
22:00 +7°C° 0 mm 0 m/S 757 mmHg 94%
23:00 +6°C° 0 mm 0 m/S 758 mmHg 94%

übermorgen, 31 Oktober, Samstag

Zeit Temperatur Niederschläge Wind Luftdruck Luftfeuchtigkeit
00:00 +6°C° 0 mm 0 m/S 758 mmHg 93%
01:00 +6°C° 0 mm 0 m/S 758 mmHg 93%
02:00 +5°C° 0 mm 0 m/S 759 mmHg 93%
03:00 +5°C° 0 mm 0 m/S 759 mmHg 92%
04:00 +5°C° 0 mm 0 m/S 760 mmHg 91%
05:00 +5°C° 0 mm 0 m/S 760 mmHg 91%
06:00 +5°C° 0 mm 0 m/S 761 mmHg 90%
07:00 +5°C° 0 mm 0 m/S 761 mmHg 90%
08:00 +7°C° 0 mm 1 m/S 761 mmHg 84%
09:00 +9°C° 0 mm 1 m/S 762 mmHg 79%
10:00 +10°C° 0 mm 1 m/S 762 mmHg 74%
11:00 +11°C° 0 mm 1 m/S 762 mmHg 71%
12:00 +12°C° 0 mm 1 m/S 762 mmHg 67%
13:00 +12°C° 0 mm 1 m/S 762 mmHg 64%
14:00 +12°C° 0 mm 1 m/S 762 mmHg 68%
15:00 +11°C° 0 mm 1 m/S 762 mmHg 72%
16:00 +10°C° 0 mm 1 m/S 762 mmHg 76%
17:00 +9°C° 0 mm 1 m/S 762 mmHg 78%
18:00 +8°C° 0 mm 2 m/S 762 mmHg 80%
19:00 +7°C° 0 mm 2 m/S 763 mmHg 82%
20:00 +7°C° 0 mm 2 m/S 763 mmHg 84%
21:00 +7°C° 0 mm 2 m/S 763 mmHg 85%
22:00 +7°C° 0 mm 3 m/S 763 mmHg 87%
23:00 +5°C° 0 mm 3 m/S 763 mmHg 88%

1 November, Sonntag

Zeit Temperatur Niederschläge Wind Luftdruck Luftfeuchtigkeit
00:00 +5°C° 0 mm 3 m/S 763 mmHg 90%
01:00 +5°C° 0 mm 3 m/S 763 mmHg 92%
02:00 +5°C° 0 mm 3 m/S 762 mmHg 92%
03:00 +5°C° 0 mm 4 m/S 762 mmHg 92%
04:00 +5°C° 0 mm 4 m/S 762 mmHg 93%
05:00 +5°C° 0 mm 4 m/S 762 mmHg 92%
06:00 +5°C° 0 mm 4 m/S 762 mmHg 92%
07:00 +4°C° 0 mm 4 m/S 762 mmHg 91%
08:00 +6°C° 0 mm 5 m/S 762 mmHg 86%
09:00 +7°C° 0 mm 5 m/S 762 mmHg 81%
10:00 +8°C° 0 mm 6 m/S 761 mmHg 75%
11:00 +9°C° 0 mm 6 m/S 761 mmHg 71%
12:00 +10°C° 0 mm 6 m/S 761 mmHg 67%
13:00 +10°C° 0 mm 7 m/S 760 mmHg 63%
14:00 +10°C° 0 mm 6 m/S 760 mmHg 65%
15:00 +9°C° 0 mm 6 m/S 759 mmHg 67%
16:00 +8°C° 0 mm 6 m/S 759 mmHg 70%
17:00 +8°C° 0 mm 6 m/S 759 mmHg 70%
18:00 +8°C° 0 mm 6 m/S 759 mmHg 71%
19:00 +8°C° 0 mm 6 m/S 758 mmHg 72%
20:00 +7°C° 0 mm 6 m/S 758 mmHg 74%
21:00 +7°C° 0 mm 6 m/S 758 mmHg 76%
22:00 +7°C° 0 mm 6 m/S 758 mmHg 78%
23:00 +7°C° 0 mm 5 m/S 758 mmHg 82%

2 November, Montag

Zeit Temperatur Niederschläge Wind Luftdruck Luftfeuchtigkeit
00:00 +7°C° 0 mm 5 m/S 757 mmHg 85%
01:00 +7°C° 0 mm 5 m/S 757 mmHg 88%
02:00 +7°C° 0 mm 5 m/S 757 mmHg 90%
03:00 +7°C° 0 mm 5 m/S 757 mmHg 92%
04:00 +8°C° 0 mm 4 m/S 757 mmHg 93%
05:00 +8°C° 0 mm 5 m/S 757 mmHg 93%
06:00 +8°C° 0 mm 5 m/S 757 mmHg 93%
07:00 +8°C° 0 mm 5 m/S 757 mmHg 92%
08:00 +9°C° 0 mm 5 m/S 757 mmHg 89%
09:00 +10°C° 0 mm 5 m/S 757 mmHg 85%
10:00 +11°C° 0 mm 6 m/S 757 mmHg 82%
11:00 +13°C° 0 mm 5 m/S 757 mmHg 81%
12:00 +13°C° 0 mm 5 m/S 757 mmHg 79%
13:00 +14°C° 0 mm 5 m/S 757 mmHg 78%
14:00 +14°C° 0 mm 5 m/S 757 mmHg 80%
15:00 +13°C° 0 mm 5 m/S 757 mmHg 82%
16:00 +13°C° 0 mm 5 m/S 756 mmHg 84%
17:00 +13°C° 0 mm 5 m/S 757 mmHg 86%
18:00 +12°C° 0 mm 5 m/S 757 mmHg 87%
19:00 +12°C° 0 mm 5 m/S 757 mmHg 89%
20:00 +12°C° 0 mm 5 m/S 757 mmHg 89%
21:00 +10°C° 0 mm 5 m/S 758 mmHg 90%
22:00 +10°C° 0 mm 5 m/S 758 mmHg 90%
23:00 +10°C° 0 mm 5 m/S 758 mmHg 90%

3 November, Dienstag

Zeit Temperatur Niederschläge Wind Luftdruck Luftfeuchtigkeit
00:00 +10°C° 0 mm 5 m/S 758 mmHg 90%
01:00 +10°C° 0 mm 5 m/S 758 mmHg 90%
02:00 +10°C° 0 mm 5 m/S 759 mmHg 89%
03:00 +9°C° 0 mm 5 m/S 759 mmHg 89%
04:00 +9°C° 0 mm 5 m/S 759 mmHg 88%
05:00 +10°C° 0 mm 4 m/S 759 mmHg 88%
06:00 +10°C° 0 mm 4 m/S 759 mmHg 87%
07:00 +10°C° 0 mm 4 m/S 760 mmHg 87%
08:00 +10°C° 0 mm 4 m/S 760 mmHg 82%
09:00 +10°C° 0 mm 5 m/S 760 mmHg 77%
10:00 +12°C° 0 mm 5 m/S 761 mmHg 72%
11:00 +12°C° 0 mm 5 m/S 761 mmHg 70%
12:00 +12°C° 0 mm 5 m/S 761 mmHg 67%
13:00 +12°C° 0 mm 4 m/S 761 mmHg 65%
14:00 +12°C° 0.1 mm 4 m/S 761 mmHg 67%
15:00 +12°C° 0.1 mm 4 m/S 761 mmHg 69%
16:00 +11°C° 0.1 mm 3 m/S 761 mmHg 71%
17:00 +11°C° 0 mm 4 m/S 762 mmHg 71%
18:00 +11°C° 0 mm 4 m/S 762 mmHg 72%
19:00 +10°C° 0 mm 4 m/S 762 mmHg 72%
20:00 +10°C° 0 mm 4 m/S 763 mmHg 75%
21:00 +10°C° 0 mm 4 m/S 763 mmHg 77%
22:00 +9°C° 0 mm 5 m/S 763 mmHg 80%
23:00 +8°C° 0 mm 5 m/S 763 mmHg 81%
Mehr zeigen